"Pseudo-MPEC" for ZTF01nQ

Created 2018 Nov 12 22:18:30 UT using Find_Orb

Click here for an explanation of pseudo-MPECs

 
 Astrometry: 
     ZTF01nQ  C2018 11 12.32087303 52 23.64 +25 32 06.7          15.15RUNEOCPI41
     ZTF01nQ  C2018 11 12.32122003 52 28.98 +25 33 05.7          15.15RUNEOCPI41
     ZTF01nQ  C2018 11 12.41127404 17 56.02 +29 36 16.1          16.43gUNEOCPI41
     ZTF01nQ  C2018 11 12.41162104 18 02.83 +29 37 10.6          16.43gUNEOCPI41
     ZTF01nQ  C2018 11 12.41173304 18 04.99 +29 37 28.7          16.52gUNEOCPI41
     ZTF01nQ  C2018 11 12.41208104 18 11.76 +29 38 21.9          16.52gUNEOCPI41

Station data:
(I41) Palomar Mountain--ZTF  (N33.357340 W116.859780)  US/California. 1.2-m
   f/2.44 Oschin Schmidt + CCD.

Orbital elements:  ZTF01nQ
   Perigee 2018 Nov 11.418052 +/- 0.244 TT = 10:01:59 (JD 2458433.918052)
Epoch 2018 Nov 12.0 TT = JDT 2458434.5                        AutoNEOCP
M 149.14952036 +/- 31               (J2000 equator)
n 256.29355581 +/- 47.3             Peri.  209.09387 +/- 7
a 52979.9708 +/- 6501               Node    19.31113 +/- 0.59
e   0.6212784 +/- 0.0583            Incl.   38.45906 +/- 0.36
P2022.64m/1.405d           H 31.8   G  0.15   U 15.3  
q 20064.6590 +/- 5613    Q 85895.2827 +/- 8969
From 6 observations 2018 Nov. 12 (2.2 hr); mean residual 0".46
Residuals in arcseconds: 
181112 I41  .65-  .40-    181112 I41  .63-  .51-    181112 I41  .12+  .70+    
181112 I41  .66+  .40+    181112 I41  .33+  .01+    181112 I41  .17+  .20-    

Ephemerides (geocentric):
Date (UTC) HH   RA              Dec         delta   r     elong  mag " sig PA
---- -- -- --  -------------   -----------  ------ ------ -----  --- ---- ---
2018 11 12 22  21 43 45.015   -32 29 58.64   32934 .98972  87.1 16.8  40d  68
2018 11 12 23  22 55 29.931   -24 42 26.30   40600 .98978 104.6 16.6  32d  59
2018 11 13 00  23 39 22.346   -18 11 16.75   47680 .98985 116.7 16.5  27d  55
2018 11 13 01  00 10 06.012   -12 53 46.21   54046 .98991 125.7 16.5  24d  53
2018 11 13 02  00 33 41.114   -08 30 36.83   59710 .98996 132.9 16.5  22d  52
2018 11 13 03  00 52 57.710   -04 46 40.20   64715 0.9900 138.9 16.5  20d  51
2018 11 13 04  01 09 26.772   -01 31 27.87   69107 0.9900 144.1 16.5  19d  51
2018 11 13 05  01 24 01.940   +01 22 13.43   72925 0.9901 148.7 16.5  18d  51
2018 11 13 06  01 37 17.414   +03 59 29.22   76204 0.9901 152.9 16.5  17d  51
2018 11 13 07  01 49 36.476   +06 24 01.12   78973 0.9901 156.7 16.5  17d  51
2018 11 13 08  02 01 15.946   +08 38 34.58   81255 0.9901 160.3 16.4 982'  52
2018 11 13 09  02 12 28.679   +10 45 16.55   83068 0.9902 163.7 16.4 972'  52
2018 11 13 10  02 23 25.077   +12 45 47.09   84424 0.9902 167.0 16.3 970'  53
2018 11 13 11  02 34 14.066   +14 41 27.09   85335 0.9902 170.1 16.2 977'  54
2018 11 13 12  02 45 03.788   +16 33 23.56   85807 0.9902 173.1 16.1 994'  55
2018 11 13 13  02 56 02.143   +18 22 33.31   85844 0.9902 175.8 17.0  17d  55
2018 11 13 14  03 07 17.274   +20 09 45.51   85444 0.9901 177.3 Sha   18d  57
2018 11 13 15  03 18 58.057   +21 55 43.37   84607 0.9901 175.9 18.8  19d  58
2018 11 13 16  03 31 14.674   +23 41 05.09   83325 0.9901 173.0 16.0  20d  59
2018 11 13 17  03 44 19.344   +25 26 23.87   81590 0.9901 169.8 16.1  22d  60
2018 11 13 18  03 58 27.335   +27 12 06.79   79388 0.9900 166.3 16.2  25d  62
2018 11 13 19  04 13 58.427   +28 58 31.56   76702 0.9900 162.6 16.2  29d  64
2018 11 13 20  04 31 19.148   +30 45 39.47   73511 .98997 158.5 16.3  37d  66
2018 11 13 21  04 51 06.283   +32 33 00.56   69787 .98992 154.0 16.3  49d  69
2018 11 13 22  05 14 12.561   +34 19 02.59   65496 .98987 148.9 16.3  76d  72
2018 11 13 23  05 41 56.086   +36 00 03.60   60599 .98981 143.1 16.3 139d  76
2018 11 14 00  06 16 15.962   +37 27 38.92   55052 .98974 136.1 16.3 157d  81
2018 11 14 01  07 00 17.000   +38 22 34.66   48809 .98966 127.4 16.3 132d  88
2018 11 14 02  07 58 41.372   +37 59 25.59   41852 .98958 116.0 16.3 126d  97
2018 11 14 03  09 17 59.581   +34 27 17.25   34268 .98948  99.7 16.4 130d 109
2018 11 14 04  11 05 19.296   +23 21 20.86   26575 .98939  73.9 16.9 148d 122
2018 11 14 05  13 29 46.937   -02 30 56.86   20838 .98931  30.4 20?? 175d 124
2018 11 14 06  16 53 24.326   -32 44 27.11   21269 .98929  26.2 21?? 124d 111
2018 11 14 07  20 16 08.397   -37 30 48.25   27436 .98934  67.3 17.4  88d  81
2018 11 14 08  22 08 40.864   -30 10 42.14   35178 .98940  91.6 16.7  68d  65
2018 11 14 09  23 09 57.050   -22 41 13.26   42703 .98947 107.1 16.6  56d  58
2018 11 14 10  23 49 06.660   -16 33 01.81   49579 .98953 118.1 16.6  49d  54
2018 11 14 11  00 17 22.728   -11 32 53.25   55738 .98959 126.6 16.6  44d  53
2018 11 14 12  00 39 31.405   -07 22 13.08   61208 .98964 133.4 16.6  40d  52
2018 11 14 13  00 57 53.187   -03 47 21.03   66031 .98968 139.1 16.6  38d  51
2018 11 14 14  01 13 45.560   -00 38 53.08   70253 .98972 144.1 16.6  36d  51
2018 11 14 15  01 27 55.330   +02 09 41.72   73913 .98975 148.6 16.6  35d  51
2018 11 14 16  01 40 52.935   +04 43 01.24   77043 .98978 152.6 16.5  34d  52
2018 11 14 17  01 52 59.468   +07 04 28.73   79670 .98980 156.4 16.5  34d  52
2018 11 14 18  02 04 30.414   +09 16 37.18   81815 .98981 159.9 16.4  34d  52
2018 11 14 19  02 15 37.806   +11 21 24.88   83495 .98983 163.3 16.4  34d  53
2018 11 14 20  02 26 31.542   +13 20 25.76   84723 .98983 166.5 16.3  35d  54
2018 11 14 21  02 37 20.266   +15 14 56.27   85507 .98983 169.6 16.2  37d  54